TimeEST,TemperatureF,Dew PointF,Humidity,Sea Level PressureIn,VisibilityMPH,Wind Direction,Wind SpeedMPH,Gust SpeedMPH,PrecipitationIn,Events,Conditions,WindDirDegrees,DateUTC
12:53 AM,14.0,5.0,67,30.22,10.0,WSW,12.7,-,N/A,,Clear,250,2013-12-10 05:53:00
1:53 AM,12.0,3.9,70,30.22,10.0,WSW,11.5,-,N/A,,Scattered Clouds,250,2013-12-10 06:53:00
2:01 AM,10.4,3.2,73,30.17,10.0,WSW,8.1,-,N/A,,Mostly Cloudy,250,2013-12-10 07:01:00
2:13 AM,10.4,3.2,73,30.17,10.0,WSW,8.1,-,N/A,,Scattered Clouds,240,2013-12-10 07:13:00
2:53 AM,10.0,1.9,70,30.20,10.0,WSW,10.4,-,N/A,,Clear,240,2013-12-10 07:53:00
3:53 AM,8.1,1.0,73,30.19,10.0,WSW,8.1,-,N/A,,Clear,250,2013-12-10 08:53:00
4:53 AM,7.0,-0.0,73,30.19,10.0,WSW,8.1,-,N/A,,Clear,240,2013-12-10 09:53:00
5:53 AM,5.0,-2.0,73,30.18,10.0,SW,6.9,-,N/A,,Clear,230,2013-12-10 10:53:00
6:53 AM,3.0,-2.9,76,30.17,10.0,SSW,6.9,-,N/A,,Clear,210,2013-12-10 11:53:00
7:53 AM,3.0,-4.0,73,30.15,10.0,South,8.1,-,N/A,,Clear,190,2013-12-10 12:53:00
8:53 AM,6.1,-2.0,69,30.13,10.0,SSW,13.8,-,N/A,,Overcast,200,2013-12-10 13:53:00
9:53 AM,10.9,1.0,64,30.13,10.0,SW,15.0,-,N/A,,Overcast,230,2013-12-10 14:53:00
10:53 AM,16.0,3.9,59,30.08,10.0,SSW,18.4,26.5,N/A,,Overcast,210,2013-12-10 15:53:00
11:53 AM,19.0,5.0,54,30.08,10.0,SW,21.9,31.1,N/A,,Mostly Cloudy,230,2013-12-10 16:53:00
12:53 PM,21.0,9.0,60,30.06,10.0,WSW,25.3,36.8,0.00,,Overcast,250,2013-12-10 17:53:00
1:25 PM,23.0,10.4,59,30.02,10.0,WSW,21.9,27.6,N/A,,Mostly Cloudy,240,2013-12-10 18:25:00
1:44 PM,23.0,10.4,59,30.01,10.0,WSW,23.0,33.4,N/A,,Scattered Clouds,250,2013-12-10 18:44:00
1:53 PM,23.0,10.0,58,30.05,10.0,WSW,25.3,33.4,N/A,,Mostly Cloudy,250,2013-12-10 18:53:00
2:53 PM,23.0,10.0,58,30.07,10.0,WSW,21.9,31.1,N/A,,Mostly Cloudy,250,2013-12-10 19:53:00
3:44 PM,21.2,10.4,63,30.05,10.0,West,25.3,35.7,N/A,,Mostly Cloudy,260,2013-12-10 20:44:00
3:53 PM,23.0,10.9,60,30.11,10.0,WSW,21.9,35.7,N/A,,Mostly Cloudy,250,2013-12-10 20:53:00
4:00 PM,21.2,10.4,63,30.07,10.0,West,23.0,32.2,N/A,,Mostly Cloudy,260,2013-12-10 21:00:00
4:38 PM,21.2,10.4,63,30.08,10.0,WSW,20.7,29.9,N/A,,Mostly Cloudy,250,2013-12-10 21:38:00
4:53 PM,21.9,10.0,60,30.14,10.0,WSW,19.6,29.9,N/A,,Scattered Clouds,250,2013-12-10 21:53:00
5:53 PM,21.0,9.0,60,30.17,10.0,WSW,12.7,-,N/A,,Clear,250,2013-12-10 22:53:00
6:53 PM,19.9,10.9,68,30.20,10.0,West,13.8,-,N/A,,Clear,260,2013-12-10 23:53:00
7:53 PM,19.0,8.1,62,30.21,10.0,WSW,13.8,-,N/A,,Clear,250,2013-12-11 00:53:00
8:53 PM,18.0,8.1,65,30.24,10.0,West,15.0,-,N/A,,Clear,260,2013-12-11 01:53:00
9:53 PM,17.1,7.0,65,30.27,10.0,WSW,12.7,-,N/A,,Clear,250,2013-12-11 02:53:00
10:53 PM,18.0,8.1,65,30.27,10.0,WSW,15.0,-,N/A,,Scattered Clouds,250,2013-12-11 03:53:00
11:53 PM,18.0,7.0,62,30.30,10.0,WSW,13.8,-,N/A,,Overcast,250,2013-12-11 04:53:00